Weather History for KCNI - September, 2013

Change the Weather History Date:

Wednesday, September 18, 2013

  Actual Average (KGVL) Record (KGVL)
Temperature  
Mean Temperature 68 °F 71 °F  
Max Temperature 75 °F 80 °F 101 °F (1931)
Min Temperature 62 °F 62 °F 49 °F (1981)
Degree Days  
Heating Degree Days 0 0  
Month to date heating degree days 0  
Since 1 July heating degree days 0  
Cooling Degree Days 4 6  
Month to date cooling degree days 160  
Year to date cooling degree days 1486  
Growing Degree Days 18 (Base 50)    
Moisture  
Dew Point 53 °F    
Average Humidity 60    
Maximum Humidity 82    
Minimum Humidity 44    
Precipitation  
Precipitation 0.00 in 0.16 in 3.47 in (1975)
Month to date precipitation 2.80  
Year to date precipitation 39.05  
Sea Level Pressure  
Sea Level Pressure 30.23 in    
Wind  
Wind Speed 5 mph (East)    
Max Wind Speed 8 mph    
Max Gust Speed -    
Visibility 10 miles    
Events      
T = Trace of Precipitation, MM = Missing Value Source: NWS Daily Summary

Daily Weather History Graph

Daily Weather History Graph

Search for Another Location

Airport or City:

Trip Planner

Search our weather history database for the weather conditions in past years. The results will help you decide how hot, cold, wet, or windy it might be!

Date:

Astronomy

Sep. 18, 2013 Rise Set
Actual Time 7:23 AM EDT 7:39 PM EDT
Civil Twilight 6:57 AM EDT 8:04 PM EDT
Nautical Twilight 6:28 AM EDT 8:34 PM EDT
Astronomical Twilight 5:58 AM EDT 9:03 PM EDT
Moon 7:03 PM EDT (9/18) 6:25 AM EDT (9/18)
Length of Visible Light 13h 06m
Length of Day
12h 16m
Waxing Gibbous, 99% of the Moon is Illuminated
Sep 18
Waxing Gibbous
Sep 19
Full
Sep 26
Last Quarter
Oct 4
New
Oct 11
First Quarter

Hourly Weather History & Observations

Time (EDT) Temp. Dew Point Humidity Pressure Visibility Wind Dir Wind Speed Gust Speed Precip Events Conditions
12:15 AM 64.4 °F 53.6 °F 68% 30.25 in 10.0 mi East 4.6 mph - N/A   Overcast
12:35 AM 64.4 °F 53.6 °F 68% 30.24 in 10.0 mi ENE 4.6 mph - N/A   Overcast
12:55 AM 64.4 °F 53.6 °F 68% 30.24 in 10.0 mi ENE 5.8 mph - N/A   Overcast
1:15 AM 64.4 °F 53.6 °F 68% 30.24 in 10.0 mi East 4.6 mph - N/A   Overcast
1:35 AM 64.4 °F 51.8 °F 64% 30.24 in 10.0 mi East 3.5 mph - N/A   Overcast
1:55 AM 64.4 °F 51.8 °F 64% 30.24 in 10.0 mi ENE 4.6 mph - N/A   Overcast
2:15 AM 64.4 °F 51.8 °F 64% 30.24 in 10.0 mi East 4.6 mph - N/A   Overcast
2:35 AM 64.4 °F 51.8 °F 64% 30.24 in 10.0 mi East 4.6 mph - N/A   Mostly Cloudy
2:55 AM 64.4 °F 51.8 °F 64% 30.23 in 10.0 mi East 3.5 mph - N/A   Mostly Cloudy
3:15 AM 64.4 °F 51.8 °F 64% 30.23 in 10.0 mi ENE 3.5 mph - N/A   Overcast
3:35 AM 64.4 °F 51.8 °F 64% 30.23 in 10.0 mi ENE 4.6 mph - N/A   Overcast
3:55 AM 64.4 °F 51.8 °F 64% 30.23 in 10.0 mi ENE 4.6 mph - N/A   Overcast
4:15 AM 64.4 °F 51.8 °F 64% 30.23 in 10.0 mi ENE 5.8 mph - N/A   Overcast
4:35 AM 64.4 °F 51.8 °F 64% 30.22 in 10.0 mi East 5.8 mph - N/A   Overcast
4:55 AM 64.4 °F 51.8 °F 64% 30.22 in 10.0 mi East 4.6 mph - N/A   Overcast
5:15 AM 64.4 °F 51.8 °F 64% 30.22 in 10.0 mi East 4.6 mph - N/A   Overcast
5:35 AM 64.4 °F 51.8 °F 64% 30.22 in 10.0 mi East 4.6 mph - N/A   Overcast
5:55 AM 64.4 °F 51.8 °F 64% 30.23 in 10.0 mi East 4.6 mph - N/A   Overcast
6:15 AM 64.4 °F 51.8 °F 64% 30.23 in 10.0 mi East 5.8 mph - N/A   Overcast
6:35 AM 64.4 °F 51.8 °F 64% 30.23 in 10.0 mi East 5.8 mph - N/A   Overcast
6:55 AM 62.6 °F 51.8 °F 68% 30.24 in 10.0 mi ENE 4.6 mph - N/A   Mostly Cloudy
7:15 AM 62.6 °F 51.8 °F 68% 30.25 in 10.0 mi East 5.8 mph - N/A   Scattered Clouds
7:35 AM 62.6 °F 51.8 °F 68% 30.26 in 10.0 mi East 3.5 mph - N/A   Scattered Clouds
7:55 AM 62.6 °F 51.8 °F 68% 30.26 in 10.0 mi ENE 3.5 mph - N/A   Scattered Clouds
8:15 AM 62.6 °F 51.8 °F 68% 30.26 in 10.0 mi East 3.5 mph - N/A   Clear
8:35 AM 64.4 °F 51.8 °F 64% 30.26 in 10.0 mi ENE 4.6 mph - N/A   Clear
8:55 AM 64.4 °F 51.8 °F 64% 30.27 in 10.0 mi ENE 6.9 mph - N/A   Clear
9:15 AM 66.2 °F 51.8 °F 60% 30.27 in 10.0 mi ENE 6.9 mph - N/A   Clear
9:35 AM 68.0 °F 51.8 °F 56% 30.28 in 10.0 mi East 6.9 mph - N/A   Scattered Clouds
9:55 AM 68.0 °F 51.8 °F 56% 30.28 in 10.0 mi ENE 8.1 mph - N/A   Overcast
10:15 AM 68.0 °F 51.8 °F 56% 30.28 in 10.0 mi East 5.8 mph - N/A   Overcast
10:35 AM 68.0 °F 51.8 °F 56% 30.28 in 10.0 mi East 8.1 mph - N/A   Mostly Cloudy
10:55 AM 69.8 °F 51.8 °F 53% 30.28 in 10.0 mi East 4.6 mph - N/A   Clear
11:15 AM 71.6 °F 51.8 °F 50% 30.27 in 10.0 mi ESE 6.9 mph - N/A   Clear
11:35 AM 71.6 °F 51.8 °F 50% 30.27 in 10.0 mi East 8.1 mph - N/A   Scattered Clouds
11:55 AM 71.6 °F 51.8 °F 50% 30.27 in 10.0 mi East 5.8 mph - N/A   Scattered Clouds
12:15 PM 71.6 °F 51.8 °F 50% 30.27 in 10.0 mi SSE 3.5 mph - N/A   Scattered Clouds
12:35 PM 71.6 °F 51.8 °F 50% 30.27 in 10.0 mi ENE 4.6 mph - N/A   Mostly Cloudy
12:55 PM 73.4 °F 51.8 °F 47% 30.26 in 10.0 mi East 4.6 mph - N/A   Mostly Cloudy
1:15 PM 73.4 °F 50.0 °F 44% 30.26 in 10.0 mi East 6.9 mph - N/A   Overcast
1:35 PM 73.4 °F 50.0 °F 44% 30.26 in 10.0 mi East 4.6 mph - N/A   Mostly Cloudy
1:55 PM 73.4 °F 51.8 °F 47% 30.25 in 10.0 mi East 4.6 mph - N/A   Mostly Cloudy
2:15 PM 73.4 °F 51.8 °F 47% 30.25 in 10.0 mi East 6.9 mph - N/A   Mostly Cloudy
2:35 PM 73.4 °F 51.8 °F 47% 30.24 in 10.0 mi East 8.1 mph - N/A   Mostly Cloudy
2:55 PM 73.4 °F 53.6 °F 50% 30.23 in 10.0 mi ESE 4.6 mph - N/A   Mostly Cloudy
3:15 PM 73.4 °F 53.6 °F 50% 30.23 in 10.0 mi ENE 5.8 mph - N/A   Mostly Cloudy
3:35 PM 73.4 °F 53.6 °F 50% 30.22 in 10.0 mi ENE 6.9 mph - N/A   Scattered Clouds
3:55 PM 73.4 °F 53.6 °F 50% 30.21 in 10.0 mi East 6.9 mph - N/A   Mostly Cloudy
4:15 PM 73.4 °F 53.6 °F 50% 30.20 in 10.0 mi ENE 5.8 mph - N/A   Overcast
4:35 PM 75.2 °F 53.6 °F 47% 30.19 in 10.0 mi East 5.8 mph - N/A   Overcast
4:55 PM 73.4 °F 53.6 °F 50% 30.19 in 10.0 mi SE 5.8 mph - N/A   Overcast
5:15 PM 73.4 °F 51.8 °F 47% 30.19 in 10.0 mi East 3.5 mph - N/A   Mostly Cloudy
5:35 PM 73.4 °F 53.6 °F 50% 30.19 in 10.0 mi East 3.5 mph - N/A   Scattered Clouds
5:55 PM 73.4 °F 53.6 °F 50% 30.19 in 10.0 mi Calm Calm - N/A   Clear
6:15 PM 73.4 °F 53.6 °F 50% 30.18 in 10.0 mi ESE 4.6 mph - N/A   Clear
6:35 PM 73.4 °F 53.6 °F 50% 30.18 in 10.0 mi East 4.6 mph - N/A   Clear
6:55 PM 73.4 °F 53.6 °F 50% 30.18 in 10.0 mi East 3.5 mph - N/A   Clear
7:15 PM 71.6 °F 53.6 °F 53% 30.18 in 10.0 mi ESE 3.5 mph - N/A   Clear
7:35 PM 71.6 °F 53.6 °F 53% 30.17 in 10.0 mi Calm Calm - N/A   Clear
7:55 PM 69.8 °F 55.4 °F 60% 30.18 in 10.0 mi Calm Calm - N/A   Clear
8:15 PM 68.0 °F 57.2 °F 68% 30.19 in 10.0 mi Calm Calm - N/A   Clear
8:35 PM 68.0 °F 55.4 °F 64% 30.19 in 10.0 mi Calm Calm - N/A   Clear
8:55 PM 68.0 °F 57.2 °F 68% 30.19 in 10.0 mi ENE 4.6 mph - N/A   Clear
9:15 PM 68.0 °F 57.2 °F 68% 30.20 in 10.0 mi ENE 3.5 mph - N/A   Clear
9:35 PM 66.2 °F 55.4 °F 68% 30.20 in 10.0 mi ENE 3.5 mph - N/A   Clear
9:55 PM 66.2 °F 55.4 °F 68% 30.20 in 10.0 mi ENE 3.5 mph - N/A   Clear
10:15 PM 64.4 °F 55.4 °F 73% 30.21 in 10.0 mi Calm Calm - N/A   Clear
10:35 PM 64.4 °F 55.4 °F 73% 30.21 in 10.0 mi Calm Calm - N/A   Clear
10:55 PM 64.4 °F 55.4 °F 73% 30.21 in 10.0 mi Calm Calm - N/A   Clear
11:15 PM 62.6 °F 57.2 °F 82% 30.21 in 10.0 mi Calm Calm - N/A   Clear
11:35 PM 62.6 °F 57.2 °F 82% 30.21 in 10.0 mi Calm Calm - N/A   Clear
11:55 PM 64.4 °F 55.4 °F 73% 30.21 in 10.0 mi Calm Calm - N/A   Clear